This is the latest recevied weather packets stored in our database for station/object NO9B. If no packets are shown the sender has not sent any weather packets the latest 10 day(s).
| Time | Temp. | Humidity | Pressure | Rain* | Wind** | Luminosity | Snow |
|---|---|---|---|---|---|---|---|
| 1788134028 | 23.89° C | 87% | 1014.8 hPa | 0 mm | - | 5 W/m² | - |
| 1788133724 | 23.89° C | 88% | 1014.8 hPa | 0 mm | - | 6 W/m² | - |
| 1788133420 | 23.89° C | 88% | 1014.5 hPa | 0 mm | - | 6 W/m² | - |
| 1788133115 | 23.89° C | 88% | 1014.7 hPa | 0 mm | - | 7 W/m² | - |
| 1788132811 | 24.44° C | 87% | 1014.7 hPa | 0 mm | - | 11 W/m² | - |
| 1788132506 | 24.44° C | 87% | 1014.9 hPa | 0 mm | - | 16 W/m² | - |
| 1788132202 | 24.44° C | 87% | 1015 hPa | 0 mm | - | 21 W/m² | - |
| 1788131898 | 24.44° C | 87% | 1014.8 hPa | 0 mm | - | 24 W/m² | - |
| 1788131599 | 24.44° C | 87% | 1014.8 hPa | 0 mm | - | 27 W/m² | - |
| 1788131293 | 24.44° C | 87% | 1014.8 hPa | 0 mm | - | 22 W/m² | - |
| 1788130988 | 24.44° C | 87% | 1014.8 hPa | 0 mm | - | 17 W/m² | - |
| 1788130688 | 24.44° C | 87% | 1014.9 hPa | 0 mm | - | 23 W/m² | - |
| 1788130383 | 23.89° C | 87% | 1014.7 hPa | 0 mm | - | 30 W/m² | - |
| 1788130082 | 23.89° C | 87% | 1014.8 hPa | 0 mm | - | 35 W/m² | - |
| 1788129777 | 23.89° C | 87% | 1014.6 hPa | 0 mm | - | 32 W/m² | - |
| 1788129474 | 23.89° C | 87% | 1014.7 hPa | 0 mm | - | 28 W/m² | - |
| 1788129170 | 23.89° C | 87% | 1014.6 hPa | 0 mm | - | 25 W/m² | - |
| 1788128864 | 23.89° C | 88% | 1014.6 hPa | 0 mm | - | 25 W/m² | - |
| 1788128559 | 23.89° C | 87% | 1014.9 hPa | 0 mm | - | 25 W/m² | - |
| 1788128254 | 23.89° C | 87% | 1015 hPa | 0 mm | - | 27 W/m² | - |
| 1788127952 | 23.89° C | 87% | 1014.9 hPa | 0 mm | - | 31 W/m² | - |
| 1788127647 | 23.89° C | 87% | 1015 hPa | 0 mm | - | 31 W/m² | - |
| 1788127345 | 23.89° C | 87% | 1015 hPa | 0 mm | - | 34 W/m² | - |
| 1788127044 | 23.89° C | 87% | 1014.9 hPa | 0 mm | - | 31 W/m² | - |
| 1788126739 | 23.89° C | 86% | 1014.9 hPa | 0 mm | - | 29 W/m² | - |
* Rain latest hour (hover to see other rain measurements)
** Current wind speed in m/s (hover to see current wind gust speed)